Time,TemperatureF,DewpointF,PressureIn,WindDirection,WindDirectionDegrees,WindSpeedMPH,WindSpeedGustMPH,Humidity,HourlyPrecipIn,Conditions,Clouds,dailyrainin,SolarRadiationWatts/m^2,SoftwareType,DateUTC
2013-02-09 00:01:00,20.0,15.0,-100.00,ESE,106,5.0,8.0,82,0.00,,,0.00,0.000000,,2013-02-09 06:01:00,
2013-02-09 00:11:00,20.0,15.0,-100.00,ESE,106,5.0,8.0,82,0.00,,,0.00,0.000000,,2013-02-09 06:11:00,
2013-02-09 00:20:00,21.0,17.0,-100.00,ESE,123,5.0,6.0,86,0.00,,,0.00,0.000000,,2013-02-09 06:20:00,
2013-02-09 00:42:00,21.0,17.0,-100.00,ESE,123,5.0,6.0,86,0.00,,,0.00,0.000000,,2013-02-09 06:42:00,
2013-02-09 00:52:00,21.0,17.0,-100.00,ESE,123,5.0,6.0,86,0.00,,,0.00,0.000000,,2013-02-09 06:52:00,
2013-02-09 01:01:00,21.0,17.0,-100.00,ESE,123,5.0,6.0,86,0.00,,,0.00,0.000000,,2013-02-09 07:01:00,
2013-02-09 01:11:00,21.0,17.0,-100.00,ESE,123,5.0,6.0,86,0.00,,,0.00,0.000000,,2013-02-09 07:11:00,
2013-02-09 01:20:00,23.0,19.0,-100.00,SSE,149,6.0,12.0,86,0.00,,,0.00,0.000000,,2013-02-09 07:20:00,
2013-02-09 01:42:00,23.0,19.0,-100.00,SSE,149,6.0,12.0,86,0.00,,,0.00,0.000000,,2013-02-09 07:42:00,
2013-02-09 01:52:00,23.0,19.0,-100.00,SSE,149,6.0,12.0,86,0.00,,,0.00,0.000000,,2013-02-09 07:52:00,
2013-02-09 02:01:00,23.0,19.0,-100.00,SSE,149,6.0,12.0,86,0.00,,,0.00,0.000000,,2013-02-09 08:01:00,
2013-02-09 02:11:00,23.0,19.0,-100.00,SSE,149,6.0,12.0,86,0.00,,,0.00,0.000000,,2013-02-09 08:11:00,
2013-02-09 02:20:00,24.0,20.0,-100.00,SSE,154,8.0,14.0,86,0.00,,,0.00,0.000000,,2013-02-09 08:20:00,
2013-02-09 02:42:00,24.0,20.0,-100.00,SSE,154,8.0,14.0,86,0.00,,,0.00,0.000000,,2013-02-09 08:42:00,
2013-02-09 02:52:00,24.0,20.0,-100.00,SSE,154,8.0,14.0,86,0.00,,,0.00,0.000000,,2013-02-09 08:52:00,
2013-02-09 03:03:00,24.0,20.0,-100.00,SSE,154,8.0,14.0,86,0.00,,,0.00,0.000000,,2013-02-09 09:03:00,
2013-02-09 03:11:00,24.0,20.0,-100.00,SSE,154,8.0,14.0,86,0.00,,,0.00,0.000000,,2013-02-09 09:11:00,
2013-02-09 03:20:00,25.0,21.0,-100.00,SSE,156,9.0,16.0,86,0.00,,,0.00,0.000000,,2013-02-09 09:20:00,
2013-02-09 03:42:00,25.0,21.0,-100.00,SSE,156,9.0,16.0,86,0.00,,,0.00,0.000000,,2013-02-09 09:42:00,
2013-02-09 03:52:00,25.0,21.0,-100.00,SSE,156,9.0,16.0,86,0.00,,,0.00,0.000000,,2013-02-09 09:52:00,
2013-02-09 04:01:00,25.0,21.0,-100.00,SSE,156,9.0,16.0,86,0.00,,,0.00,0.000000,,2013-02-09 10:01:00,
2013-02-09 04:11:00,25.0,21.0,-100.00,SSE,156,9.0,16.0,86,0.00,,,0.00,0.000000,,2013-02-09 10:11:00,
2013-02-09 04:20:00,25.0,22.0,-100.00,SSE,166,9.0,16.0,87,0.00,,,0.00,0.000000,,2013-02-09 10:20:00,
2013-02-09 04:42:00,25.0,22.0,-100.00,SSE,166,9.0,16.0,87,0.00,,,0.00,0.000000,,2013-02-09 10:42:00,
2013-02-09 04:52:00,25.0,22.0,-100.00,SSE,166,9.0,16.0,87,0.00,,,0.00,0.000000,,2013-02-09 10:52:00,
2013-02-09 05:01:00,25.0,22.0,-100.00,SSE,166,9.0,16.0,87,0.00,,,0.00,0.000000,,2013-02-09 11:01:00,
2013-02-09 05:11:00,25.0,22.0,-100.00,SSE,166,9.0,16.0,87,0.00,,,0.00,0.000000,,2013-02-09 11:11:00,
2013-02-09 05:20:00,25.0,22.0,-100.00,SSE,158,9.0,15.0,87,0.00,,,0.00,0.000000,,2013-02-09 11:20:00,
2013-02-09 05:42:00,25.0,22.0,-100.00,SSE,158,9.0,15.0,87,0.00,,,0.00,0.000000,,2013-02-09 11:42:00,
2013-02-09 05:52:00,25.0,22.0,-100.00,SSE,158,9.0,15.0,87,0.00,,,0.00,0.000000,,2013-02-09 11:52:00,
2013-02-09 06:02:00,25.0,22.0,-100.00,SSE,158,9.0,15.0,87,0.00,,,0.00,0.000000,,2013-02-09 12:02:00,
2013-02-09 06:11:00,25.0,22.0,-100.00,SSE,158,9.0,15.0,87,0.00,,,0.00,0.000000,,2013-02-09 12:11:00,
2013-02-09 06:20:00,25.0,22.0,-100.00,SSE,155,10.0,16.0,88,0.00,,,0.00,0.000000,,2013-02-09 12:20:00,
2013-02-09 06:42:00,25.0,22.0,-100.00,SSE,155,10.0,16.0,88,0.00,,,0.00,0.000000,,2013-02-09 12:42:00,
2013-02-09 06:52:00,25.0,22.0,-100.00,SSE,155,10.0,16.0,88,0.00,,,0.00,0.000000,,2013-02-09 12:52:00,
2013-02-09 07:02:00,25.0,22.0,-100.00,SSE,155,10.0,16.0,88,0.00,,,0.00,0.000000,,2013-02-09 13:02:00,
2013-02-09 07:11:00,25.0,22.0,-100.00,SSE,155,10.0,16.0,88,0.00,,,0.00,0.000000,,2013-02-09 13:11:00,
2013-02-09 07:20:00,26.0,23.0,-100.00,SSE,157,9.0,16.0,88,0.00,,,0.00,0.000000,,2013-02-09 13:20:00,
2013-02-09 07:42:00,26.0,23.0,-100.00,SSE,157,9.0,16.0,88,0.00,,,0.00,0.000000,,2013-02-09 13:42:00,
2013-02-09 07:52:00,26.0,23.0,-100.00,SSE,157,9.0,16.0,88,0.00,,,0.00,0.000000,,2013-02-09 13:52:00,
2013-02-09 08:01:00,26.0,23.0,-100.00,SSE,157,9.0,16.0,88,0.00,,,0.00,0.000000,,2013-02-09 14:01:00,
2013-02-09 08:11:00,26.0,23.0,-100.00,SSE,157,9.0,16.0,88,0.00,,,0.00,0.000000,,2013-02-09 14:11:00,
2013-02-09 08:20:00,26.0,23.0,-100.00,South,180,7.0,14.0,87,0.00,,,0.00,12.000000,,2013-02-09 14:20:00,
2013-02-09 08:42:00,26.0,23.0,-100.00,South,180,7.0,14.0,87,0.00,,,0.00,12.000000,,2013-02-09 14:42:00,
2013-02-09 08:52:00,26.0,23.0,-100.00,South,180,7.0,14.0,87,0.00,,,0.00,12.000000,,2013-02-09 14:52:00,
2013-02-09 09:02:00,26.0,23.0,-100.00,South,180,7.0,14.0,87,0.00,,,0.00,12.000000,,2013-02-09 15:02:00,
2013-02-09 09:11:00,26.0,23.0,-100.00,South,180,7.0,14.0,87,0.00,,,0.00,12.000000,,2013-02-09 15:11:00,
2013-02-09 09:20:00,27.0,23.0,-100.00,South,190,9.0,16.0,86,0.00,,,0.00,52.000000,,2013-02-09 15:20:00,
2013-02-09 09:42:00,27.0,23.0,-100.00,South,190,9.0,16.0,86,0.00,,,0.00,52.000000,,2013-02-09 15:42:00,
2013-02-09 09:52:00,27.0,23.0,-100.00,South,190,9.0,16.0,86,0.00,,,0.00,52.000000,,2013-02-09 15:52:00,
2013-02-09 10:01:00,27.0,23.0,-100.00,South,190,9.0,16.0,86,0.00,,,0.00,52.000000,,2013-02-09 16:01:00,
2013-02-09 10:11:00,27.0,23.0,-100.00,South,190,9.0,16.0,86,0.00,,,0.00,52.000000,,2013-02-09 16:11:00,
2013-02-09 10:20:00,28.0,24.0,-100.00,South,186,9.0,17.0,84,0.00,,,0.00,88.000000,,2013-02-09 16:20:00,
2013-02-09 10:42:00,28.0,24.0,-100.00,South,186,9.0,17.0,84,0.00,,,0.00,88.000000,,2013-02-09 16:42:00,
2013-02-09 10:52:00,28.0,24.0,-100.00,South,186,9.0,17.0,84,0.00,,,0.00,88.000000,,2013-02-09 16:52:00,
2013-02-09 11:01:00,28.0,24.0,-100.00,South,186,9.0,17.0,84,0.00,,,0.00,88.000000,,2013-02-09 17:01:00,
2013-02-09 11:11:00,28.0,24.0,-100.00,South,186,9.0,17.0,84,0.00,,,0.00,88.000000,,2013-02-09 17:11:00,
2013-02-09 11:20:00,28.0,24.0,-100.00,SSW,193,9.0,18.0,83,0.00,,,0.00,107.000000,,2013-02-09 17:20:00,
2013-02-09 11:42:00,28.0,24.0,-100.00,SSW,193,9.0,18.0,83,0.00,,,0.00,107.000000,,2013-02-09 17:42:00,
2013-02-09 11:52:00,28.0,24.0,-100.00,SSW,193,9.0,18.0,83,0.00,,,0.00,107.000000,,2013-02-09 17:52:00,
2013-02-09 12:02:00,28.0,24.0,-100.00,SSW,193,9.0,18.0,83,0.00,,,0.00,107.000000,,2013-02-09 18:02:00,
2013-02-09 12:12:00,28.0,24.0,-100.00,SSW,193,9.0,18.0,83,0.00,,,0.00,107.000000,,2013-02-09 18:12:00,
2013-02-09 12:20:00,29.0,25.0,-100.00,SSW,192,9.0,17.0,83,0.00,,,0.00,128.000000,,2013-02-09 18:20:00,
2013-02-09 12:42:00,29.0,25.0,-100.00,SSW,192,9.0,17.0,83,0.00,,,0.00,128.000000,,2013-02-09 18:42:00,
2013-02-09 12:52:00,29.0,25.0,-100.00,SSW,192,9.0,17.0,83,0.00,,,0.00,128.000000,,2013-02-09 18:52:00,
2013-02-09 13:01:00,29.0,25.0,-100.00,SSW,192,9.0,17.0,83,0.00,,,0.00,128.000000,,2013-02-09 19:01:00,
2013-02-09 13:11:00,29.0,25.0,-100.00,SSW,192,9.0,17.0,83,0.00,,,0.00,128.000000,,2013-02-09 19:11:00,
2013-02-09 13:20:00,29.0,25.0,-100.00,SSE,168,9.0,15.0,85,0.00,,,0.00,134.000000,,2013-02-09 19:20:00,
2013-02-09 13:42:00,29.0,25.0,-100.00,SSE,168,9.0,15.0,85,0.00,,,0.00,134.000000,,2013-02-09 19:42:00,
2013-02-09 13:52:00,29.0,25.0,-100.00,SSE,168,9.0,15.0,85,0.00,,,0.00,134.000000,,2013-02-09 19:52:00,
2013-02-09 14:01:00,29.0,25.0,-100.00,SSE,168,9.0,15.0,85,0.00,,,0.00,134.000000,,2013-02-09 20:01:00,
2013-02-09 14:11:00,29.0,25.0,-100.00,SSE,168,9.0,15.0,85,0.00,,,0.00,134.000000,,2013-02-09 20:11:00,
2013-02-09 14:20:00,30.0,26.0,-100.00,SSE,165,8.0,16.0,84,0.00,,,0.00,128.000000,,2013-02-09 20:20:00,
2013-02-09 14:42:00,30.0,26.0,-100.00,SSE,165,8.0,16.0,84,0.00,,,0.00,128.000000,,2013-02-09 20:42:00,
2013-02-09 14:52:00,30.0,26.0,-100.00,SSE,165,8.0,16.0,84,0.00,,,0.00,128.000000,,2013-02-09 20:52:00,
2013-02-09 15:02:00,30.0,26.0,-100.00,SSE,165,8.0,16.0,84,0.00,,,0.00,128.000000,,2013-02-09 21:02:00,
2013-02-09 15:11:00,30.0,26.0,-100.00,SSE,165,8.0,16.0,84,0.00,,,0.00,128.000000,,2013-02-09 21:11:00,
2013-02-09 15:20:00,30.0,27.0,-100.00,SSE,157,9.0,15.0,88,0.00,,,0.00,102.000000,,2013-02-09 21:20:00,
2013-02-09 15:42:00,30.0,27.0,-100.00,SSE,157,9.0,15.0,88,0.00,,,0.00,102.000000,,2013-02-09 21:42:00,
2013-02-09 15:52:00,30.0,27.0,-100.00,SSE,157,9.0,15.0,88,0.00,,,0.00,102.000000,,2013-02-09 21:52:00,
2013-02-09 16:01:00,30.0,27.0,-100.00,SSE,157,9.0,15.0,88,0.00,,,0.00,102.000000,,2013-02-09 22:01:00,
2013-02-09 16:11:00,30.0,27.0,-100.00,SSE,157,9.0,15.0,88,0.00,,,0.00,102.000000,,2013-02-09 22:11:00,
2013-02-09 16:20:00,30.0,27.0,-100.00,SSE,152,7.0,12.0,90,0.00,,,0.00,57.000000,,2013-02-09 22:20:00,
2013-02-09 16:42:00,30.0,27.0,-100.00,SSE,152,7.0,12.0,90,0.00,,,0.00,57.000000,,2013-02-09 22:42:00,
2013-02-09 16:52:00,30.0,27.0,-100.00,SSE,152,7.0,12.0,90,0.00,,,0.00,57.000000,,2013-02-09 22:52:00,
2013-02-09 17:01:00,30.0,27.0,-100.00,SSE,152,7.0,12.0,90,0.00,,,0.00,57.000000,,2013-02-09 23:01:00,
2013-02-09 17:11:00,30.0,27.0,-100.00,SSE,152,7.0,12.0,90,0.00,,,0.00,57.000000,,2013-02-09 23:11:00,
2013-02-09 17:20:00,30.0,29.0,-100.00,SE,127,5.0,10.0,96,0.00,,,0.00,19.000000,,2013-02-09 23:20:00,
2013-02-09 17:42:00,30.0,29.0,-100.00,SE,127,5.0,10.0,96,0.00,,,0.00,19.000000,,2013-02-09 23:42:00,
2013-02-09 17:52:00,30.0,29.0,-100.00,SE,127,5.0,10.0,96,0.00,,,0.00,19.000000,,2013-02-09 23:52:00,
2013-02-09 18:02:00,30.0,29.0,-100.00,SE,127,5.0,10.0,96,0.00,,,0.00,19.000000,,2013-02-10 00:02:00,
2013-02-09 18:12:00,30.0,29.0,-100.00,SE,127,5.0,10.0,96,0.00,,,0.00,19.000000,,2013-02-10 00:12:00,
2013-02-09 18:20:00,29.0,29.0,-100.00,ESE,106,4.0,8.0,99,0.00,,,0.00,1.000000,,2013-02-10 00:20:00,
2013-02-09 18:42:00,29.0,29.0,-100.00,ESE,106,4.0,8.0,99,0.00,,,0.00,1.000000,,2013-02-10 00:42:00,
2013-02-09 18:52:00,29.0,29.0,-100.00,ESE,106,4.0,8.0,99,0.00,,,0.00,1.000000,,2013-02-10 00:52:00,
2013-02-09 19:01:00,29.0,29.0,-100.00,ESE,106,4.0,8.0,99,0.00,,,0.00,1.000000,,2013-02-10 01:01:00,
2013-02-09 19:12:00,29.0,29.0,-100.00,ESE,106,4.0,8.0,99,0.00,,,0.00,1.000000,,2013-02-10 01:12:00,
2013-02-09 19:20:00,30.0,30.0,-100.00,East,100,4.0,7.0,100,0.00,,,0.00,0.000000,,2013-02-10 01:20:00,
2013-02-09 19:42:00,30.0,30.0,-100.00,East,100,4.0,7.0,100,0.00,,,0.00,0.000000,,2013-02-10 01:42:00,
2013-02-09 19:52:00,30.0,30.0,-100.00,East,100,4.0,7.0,100,0.00,,,0.00,0.000000,,2013-02-10 01:52:00,
2013-02-09 20:01:00,30.0,30.0,-100.00,East,100,4.0,7.0,100,0.00,,,0.00,0.000000,,2013-02-10 02:01:00,
2013-02-09 20:11:00,30.0,30.0,-100.00,East,100,4.0,7.0,100,0.00,,,0.00,0.000000,,2013-02-10 02:11:00,
2013-02-09 20:20:00,30.0,30.0,-100.00,ESE,117,7.0,10.0,100,0.00,,,0.00,0.000000,,2013-02-10 02:20:00,
2013-02-09 20:42:00,30.0,30.0,-100.00,ESE,117,7.0,10.0,100,0.00,,,0.00,0.000000,,2013-02-10 02:42:00,
2013-02-09 20:52:00,30.0,30.0,-100.00,ESE,117,7.0,10.0,100,0.00,,,0.00,0.000000,,2013-02-10 02:52:00,
2013-02-09 21:02:00,30.0,30.0,-100.00,ESE,117,7.0,10.0,100,0.00,,,0.00,0.000000,,2013-02-10 03:02:00,
2013-02-09 21:11:00,30.0,30.0,-100.00,ESE,117,7.0,10.0,100,0.00,,,0.00,0.000000,,2013-02-10 03:11:00,
2013-02-09 21:20:00,30.0,30.0,-100.00,SE,129,6.0,12.0,100,0.00,,,0.00,0.000000,,2013-02-10 03:20:00,
2013-02-09 21:42:00,30.0,30.0,-100.00,SE,129,6.0,12.0,100,0.00,,,0.00,0.000000,,2013-02-10 03:42:00,
2013-02-09 21:52:00,30.0,30.0,-100.00,SE,129,6.0,12.0,100,0.00,,,0.00,0.000000,,2013-02-10 03:52:00,
2013-02-09 22:01:00,30.0,30.0,-100.00,SE,129,6.0,12.0,100,0.00,,,0.00,0.000000,,2013-02-10 04:01:00,
2013-02-09 22:11:00,30.0,30.0,-100.00,SE,129,6.0,12.0,100,0.00,,,0.00,0.000000,,2013-02-10 04:11:00,
2013-02-09 22:20:00,29.0,29.0,-100.00,SE,125,8.0,12.0,100,0.00,,,0.00,0.000000,,2013-02-10 04:20:00,
2013-02-09 22:42:00,29.0,29.0,-100.00,SE,125,8.0,12.0,100,0.00,,,0.00,0.000000,,2013-02-10 04:42:00,
2013-02-09 22:52:00,29.0,29.0,-100.00,SE,125,8.0,12.0,100,0.00,,,0.00,0.000000,,2013-02-10 04:52:00,
2013-02-09 23:01:00,29.0,29.0,-100.00,SE,125,8.0,12.0,100,0.00,,,0.00,0.000000,,2013-02-10 05:01:00,
2013-02-09 23:11:00,29.0,29.0,-100.00,SE,125,8.0,12.0,100,0.00,,,0.00,0.000000,,2013-02-10 05:11:00,
2013-02-09 23:20:00,29.0,29.0,-100.00,SE,134,8.0,12.0,100,0.00,,,0.00,0.000000,,2013-02-10 05:20:00,
2013-02-09 23:42:00,29.0,29.0,-100.00,SE,134,8.0,12.0,100,0.00,,,0.00,0.000000,,2013-02-10 05:42:00,
2013-02-09 23:52:00,29.0,29.0,-100.00,SE,134,8.0,12.0,100,0.00,,,0.00,0.000000,,2013-02-10 05:52:00,